{"data":{"norad_id":62731,"epoch":"2026-09-24T03:54:18.061920Z","epoch_age_seconds":33183,"freshness":"FRESH","line1":"1 62731U 25013C   26267.16270905  .00003000  00000+0  17912-3 0  9998","line2":"2 62731  97.6596  76.3848 0014845  38.2779 321.9501 15.11812881 92285","mean_motion":15.11812881,"eccentricity":0.0014845,"inclination_deg":97.6596,"raan_deg":76.3848,"arg_perigee_deg":38.2779,"mean_anomaly_deg":321.9501,"bstar":0.00017912,"rev_number":9228,"period_min":95.249882978077,"perigee_km":520.41524896362,"apogee_km":540.92750102898,"semimajor_km":6908.8083749963,"source":"CELESTRAK","updated_at":"2026-09-24T09:00:26.511287Z"}}